Location: ???????
(38.3360°N, 23.6977°E)
Time: 22:10:31
(UTC+00:00)

Cosmos 1428 Rocket - Pass Details

Date: 17 November 2025
Orbit: 948 x 986 km, 82.9° (Epoch: 10 December)

Event Time Altitude Azimuth Distance (km) Brightness Sun altitude
Rises 16:49:24 0° 355° (N) 3,683 7.5 -19.2°
Reaches altitude 10° 16:51:56 10° 358° (N) 2,736 6.8 -19.7°
Maximum altitude 16:58:12 68° 82° (E) 1,054 4.4 -20.9°
Drops below altitude 10° 17:04:27 10° 165° (SSE) 2,733 6.8 -22.2°
Sets 17:06:58 0° 168° (SSE) 3,679 7.5 -22.6°
